www.pogodaiklimat.ru

Погода и климат >> Архив погоды >> Финляндия >> Муонио Лаукукеро


ПОГОДА в Муонио Лаукукеро

  • Прогноз погоды в Муонио Лаукукеро
  • Монитор погоды в Муонио Лаукукеро

АРХИВ ПОГОДЫ в Муонио Лаукукеро

Время (UTC), дата Ветер
(напр.,м/с)
 
Видим.   Явления Облачность Т
(С)
Тd
(С)
f
(%)
Тe
(С)
Тes
(С)
Комфортность P
(гПа)
Po
(гПа)
Тmin
(С)
Tmax
(С)
R
(мм)
R24
(мм)
S
(см)
11 17.01 В 4 н/о н/о -13.4 -14.8 89 -21 -21 990.0 895.7
10 17.01 В 2 н/о н/о -13.3 -14.8 88 -18 -18 990.2 895.9
12 17.01 СВ 2-3
{6}
н/о н/о -13.4 -14.9 88 -18 -18 990.1 895.8
13 17.01 СВ 6 н/о н/о -13.5 -15.0 88 -23 -23 989.6 895.3
14 17.01 В 8 н/о н/о -13.6 -15.1 88 -24 -24 989.6 895.2
15 17.01 В 12-12
{12}
н/о н/о -14.1 -15.7 88 -27 -27 989.7 895.2
17 17.01 В 11 н/о н/о -13.8 -15.4 88 -26 -26 989.9 895.5
16 17.01 В 12 н/о н/о -14.1 -15.7 88 -27 -27 989.9 895.4
18 17.01 В 11-12
{12}
н/о н/о -13.7 -15.2 88 -26 -26 990.2 895.8 -14.3 -13.2
19 17.01 В 10 н/о н/о -13.8 -15.3 88 -25 -25 990.8 896.3
20 17.01 СВ 7 н/о н/о -13.7 -15.2 88 -24 -24 991.2 896.6
21 17.01 СВ 5-6
{8}
н/о н/о -13.6 -15.2 88 -22 -22 991.9 897.3
23 17.01 СВ 4 н/о н/о -13.5 -15.0 88 -21 -21 992.5 897.9
22 17.01 СВ 6 н/о н/о -13.6 -15.1 88 -23 -23 992.2 897.6
00 18.01 В 3-5
{5}
н/о н/о -13.5 -15.0 88 -20 -20 992.8 898.2
01 18.01 В 3 н/о н/о -13.5 -15.0 88 -20 -20 993.1 898.5
02 18.01 В 3 н/о н/о -13.4 -14.9 88 -20 -20 993.4 898.8
03 18.01 В 3-3
{4}
н/о н/о -13.4 -14.9 88 -20 -20 993.9 899.2
05 18.01 ЮВ 2 н/о н/о -13.6 -15.2 88 -18 -18 994.7 899.9
04 18.01 В 2 н/о н/о -13.5 -15.0 88 -18 -18 994.2 899.5
06 18.01 ЮВ 3-3
{3}
н/о н/о -13.8 -15.4 88 -20 -20 995.1 900.2 -13.8 -13.4
07 18.01 Ю 3 н/о н/о -13.8 -15.4 88 -20 -20 995.6 900.6
08 18.01 Ю 3 н/о н/о -13.8 -15.5 87 -20 -20 996.2 901.2
09 18.01 Ю 3-4
{4}
н/о н/о -13.8 -15.4 88 -20 -20 996.8 901.7
11 18.01 Ю 3 н/о н/о -13.5 -15.1 88 -20 -20 997.4 902.3
10 18.01 ЮЗ 4 н/о н/о -13.4 -15.0 88 -21 -21 996.9 902.0
12 18.01 ЮЗ 4-4
{5}
н/о н/о -13.1 -14.7 88 -20 -20 997.5 902.6
13 18.01 ЮЗ 3 н/о н/о -13.3 -14.8 88 -20 -20 997.8 902.8
14 18.01 Ю 3 н/о н/о -13.4 -14.9 88 -20 -20 998.3 903.2
15 18.01 Ю 4-4
{4}
н/о н/о -13.5 -15.1 88 -21 -21 998.5 903.3
17 18.01 Ю 3 н/о н/о -13.5 -15.1 88 -20 -20 998.9 903.7
16 18.01 ЮЗ 4 н/о н/о -13.5 -15.0 88 -21 -21 998.7 903.6
18 18.01 Ю 4-5
{5}
н/о н/о -13.6 -15.1 88 -21 -21 999.0 903.8 -13.9 -13.1
19 18.01 ЮЗ 5 н/о н/о -13.6 -15.1 88 -22 -22 999.1 903.9
20 18.01 ЮЗ 5 н/о н/о -13.4 -15.0 88 -22 -22 999.3 904.1
21 18.01 ЮЗ 5-6
{7}
н/о н/о -13.2 -14.7 88 -22 -22 999.4 904.3
23 18.01 Ю 5 н/о н/о -13.2 -14.7 88 -22 -22 999.5 904.4
22 18.01 ЮЗ 4 н/о н/о -13.2 -14.7 88 -21 -21 999.4 904.3
00 19.01 ЮЗ 5-5
{5}
н/о н/о -13.2 -14.7 88 -22 -22 999.6 904.4
01 19.01 ЮЗ 5 н/о н/о -13.2 -14.7 88 -22 -22 999.6 904.5
02 19.01 ЮЗ 4 н/о н/о -13.3 -14.8 88 -21 -21 999.5 904.3
03 19.01 ЮЗ 3-3
{4}
н/о н/о -13.4 -14.9 88 -20 -20 999.4 904.2
05 19.01 Ю 3 н/о н/о -13.4 -14.9 88 -20 -20 999.5 904.3
04 19.01 Ю 4 н/о н/о -13.4 -14.9 88 -21 -21 999.5 904.3
06 19.01 Ю 3-3
{4}
н/о н/о -13.5 -15.0 88 -20 -20 999.5 904.3 -13.6 -13.1
07 19.01 Ю 2 н/о н/о -13.5 -15.0 88 -18 -18 999.9 904.6
08 19.01 ЮВ 3 н/о н/о -13.5 -15.1 88 -20 -20 1000.1 904.8
09 19.01 Ю 5-5
{5}
н/о н/о -13.5 -15.1 88 -22 -22 1000.6 905.2
11 19.01 ЮЗ 3 н/о н/о -13.5 -15.0 88 -20 -20 1001.3 905.9
10 19.01 Ю 4 н/о н/о -13.5 -15.0 88 -21 -21 1001.0 905.6
12 19.01 ЮЗ 2-2
{3}
н/о н/о -13.5 -15.0 88 -18 -18 1001.6 906.2
13 19.01 Ю 1 н/о н/о -13.5 -15.0 88 -16 -16 1001.7 906.3
14 19.01 Ю 1 н/о н/о -13.6 -15.2 88 -16 -16 1002.0 906.4
15 19.01 СЗ 2-3
{3}
н/о н/о -13.7 -15.3 88 -18 -18 1002.5 906.9
17 19.01 ЮВ 1 н/о н/о -13.8 -15.3 88 -16 -16 1003.1 907.4
16 19.01 СВ 2 н/о н/о -13.8 -15.3 88 -19 -19 1002.9 907.2
18 19.01 С 3-4
{5}
н/о н/о -13.9 -15.5 88 -20 -20 1003.7 907.9 -13.9 -13.4
19 19.01 С 6 н/о н/о -13.8 -15.4 88 -23 -23 1004.1 908.3
20 19.01 СВ 9 н/о н/о -13.5 -15.0 88 -24 -24 1004.3 908.6
21 19.01 СВ 11-11
{12}
н/о н/о -13.1 -14.6 88 -25 -25 1004.5 908.9
23 19.01 СВ 11 н/о н/о -13.2 -14.7 88 -25 -25 1005.4 909.7
22 19.01 СВ 11 н/о н/о -13.4 -14.9 88 -25 -25 1005.0 909.3
00 20.01 СВ 13-14
{14}
н/о н/о -14.0 -15.6 88 -27 -27 1006.1 910.1
01 20.01 СВ 14 н/о н/о -14.5 -16.0 88 -28 -28 1006.6 910.3
02 20.01 СВ 13 н/о н/о -13.6 -15.1 88 -26 -26 1006.7 910.7
03 20.01 СВ 14-15
{15}
н/о н/о -13.0 -14.5 88 -26 -26 1007.2 911.4
05 20.01 СВ 14 н/о н/о -12.9 -14.4 88 -26 -26 1008.3 912.4
04 20.01 СВ 14 н/о н/о -12.7 -14.2 89 -26 -26 1007.6 911.9
06 20.01 СВ 14-15
{15}
н/о н/о -12.9 -14.3 89 -26 -26 1008.8 912.9 -14.5 -12.7
07 20.01 С 13 н/о н/о -13.1 -14.5 89 -26 -26 1009.5 913.4
08 20.01 С 12 н/о н/о -13.1 -14.6 88 -25 -25 1009.8 913.7
09 20.01 С 10-11
{12}
н/о н/о -13.1 -14.5 89 -24 -24 1010.4 914.3
11 20.01 С 8 н/о н/о -12.9 -14.4 88 -23 -23 1010.8 914.7
10 20.01 С 10 н/о н/о -12.9 -14.4 88 -24 -24 1010.5 914.4
12 20.01 С 5-6
{9}
н/о н/о -13.3 -14.8 88 -22 -22 1011.2 914.9
13 20.01 С 5 н/о н/о -13.5 -14.9 89 -22 -22 1011.5 915.2
14 20.01 С 5 н/о н/о -13.4 -14.9 88 -22 -22 1011.6 915.3
15 20.01 СЗ 3-4
{6}
н/о н/о -12.9 -14.4 88 -19 -19 1011.5 915.3
17 20.01 З 4 н/о н/о -12.9 -14.3 89 -20 -20 1011.4 915.3
16 20.01 СЗ 3 н/о н/о -13.0 -14.4 89 -19 -19 1011.5 915.3
18 20.01 З 6-8
{8}
н/о н/о -13.8 -15.4 88 -23 -23 1011.6 915.1 -13.8 -12.8
19 20.01 З 8 н/о н/о -13.7 -15.2 88 -24 -24 1011.6 915.1
20 20.01 З 9 н/о н/о -13.2 -14.7 88 -24 -24 1011.4 915.1
21 20.01 З 8-8
{10}
н/о н/о -13.8 -15.4 88 -24 -24 1011.7 915.2
23 20.01 СЗ 8 н/о н/о -13.5 -15.0 88 -24 -24 1011.5 915.1
22 20.01 СЗ 8 н/о н/о -14.6 -16.2 88 -25 -25 1011.9 915.1
00 21.01 СЗ 7-8
{9}
н/о н/о -13.6 -15.1 88 -23 -23 1011.5 915.1
01 21.01 СЗ 8-10
{10}
н/о н/о -13.1 -14.6 88 -23 -23 1011.3 915.1
02 21.01 СЗ 7-8
{10}
н/о н/о -12.0 -13.3 90 -21 -21 1010.8 915.0
03 21.01 СЗ 7-8
{9}
н/о н/о -13.2 -14.7 88 -23 -23 1011.2 914.9
05 21.01 СЗ 7-8
{9}
н/о н/о -13.5 -15.0 88 -23 -23 1011.0 914.7
04 21.01 СЗ 8-9
{9}
н/о н/о -14.0 -15.5 88 -25 -25 1011.2 914.7
06 21.01 СЗ 8-10
{10}
н/о н/о -13.2 -14.7 88 -24 -24 1010.9 914.7 -14.7 -11.9
07 21.01 С 9 н/о н/о -13.9 -15.5 88 -25 -25 1011.4 914.9
08 21.01 С 11 н/о н/о -13.1 -14.5 89 -25 -25 1011.4 915.2
09 21.01 СЗ 12-14
{15}
н/о н/о -13.7 -15.2 88 -26 -26 1011.6 915.2
11 21.01 С 9 н/о н/о -15.1 -16.7 88 -27 -27 1012.5 915.5
10 21.01 СЗ 12 н/о н/о -14.1 -15.7 88 -27 -27 1012.0 915.3
12 21.01 С 9-11
{13}
н/о н/о -13.9 -15.4 88 -25 -25 1012.0 915.5
13 21.01 СЗ 10 н/о н/о -14.3 -15.9 88 -26 -26 1012.1 915.4
14 21.01 СЗ 11 н/о н/о -13.9 -15.5 88 -26 -26 1011.9 915.3
15 21.01 СЗ 11-14
{14}
н/о н/о -13.5 -15.0 88 -25 -25 1011.5 915.1
17 21.01 С 10 н/о н/о -13.7 -15.2 88 -25 -25 1011.6 915.1
16 21.01 СЗ 11 н/о н/о -12.9 -14.3 89 -25 -25 1011.3 915.2
18 21.01 С 10-12
{12}
н/о н/о -13.7 -15.2 88 -25 -25 1011.8 915.3 -15.1 -12.8
19 21.01 С 10 н/о н/о -13.3 -14.8 88 -25 -25 1011.8 915.5
20 21.01 СЗ 9 н/о н/о -13.1 -14.6 88 -24 -24 1011.7 915.5
21 21.01 СЗ 10-12
{14}
н/о н/о -11.9 -13.2 90 -23 -23 1011.1 915.3
23 21.01 СЗ 10 н/о н/о -12.2 -13.5 90 -23 -23 1010.8 915.0
22 21.01 СЗ 12 н/о н/о -11.2 -12.5 90 -23 -23 1010.7 915.2
00 22.01 СЗ 8-9
{12}
н/о н/о -11.9 -13.2 90 -22 -22 1010.2 914.5
01 22.01 З 10 н/о н/о -12.3 -13.7 89 -23 -23 1009.6 913.8
02 22.01 З 14 н/о н/о -12.1 -13.5 89 -25 -25 1008.0 912.4
03 22.01 З 18-20
{20}
н/о н/о -12.8 -14.2 89 -27 -27 1006.8 911.1
05 22.01 З 16 н/о н/о -13.1 -14.6 88 -27 -27 1005.7 910.0
04 22.01 З 18 н/о н/о -12.9 -14.3 89 -27 -27 1005.8 910.2
06 22.01 З 15-16
{19}
н/о н/о -12.3 -13.7 89 -25 -25 1005.2 909.9 -13.7 -11.1
07 22.01 З 13 н/о н/о -12.4 -13.8 89 -25 -25 1005.2 909.8
08 22.01 СЗ 13 н/о н/о -12.5 -13.9 89 -25 -25 1005.2 909.8
09 22.01 С 11-13
{17}
н/о н/о -11.7 -12.9 91 -23 -23 1005.6 910.4
11 22.01 СВ 12 н/о н/о -11.5 -12.8 90 -23 -23 1005.9 910.8
10 22.01 С 12 н/о н/о -11.4 -12.7 90 -23 -23 1005.7 910.6
12 22.01 СВ 13-13
{13}
н/о н/о -11.3 -12.6 90 -23 -23 1006.0 910.9
13 22.01 СВ 11 н/о н/о -11.8 -13.1 90 -23 -23 1006.5 911.2
14 22.01 СВ 11 н/о н/о -12.4 -13.8 89 -24 -24 1006.8 911.3
15 22.01 СВ 11-12
{12}
н/о н/о -12.3 -13.6 90 -24 -24 1007.1 911.5
17 22.01 СВ 9 н/о н/о -12.3 -13.7 89 -23 -23 1007.6 912.0
16 22.01 СВ 10 н/о н/о -12.2 -13.6 89 -23 -23 1007.3 911.8
18 22.01 СВ 10-12
{12}
н/о н/о -12.7 -14.1 89 -24 -24 1007.7 912.0 -12.7 -11.0
19 22.01 СВ 11 н/о н/о -12.9 -14.3 89 -25 -25 1008.0 912.2
20 22.01 СВ 11 н/о н/о -13.2 -14.6 89 -25 -25 1008.4 912.4
21 22.01 СВ 11-12
{12}
н/о н/о -13.4 -14.8 89 -25 -25 1008.7 912.7
23 22.01 СВ 11 н/о н/о -13.5 -15.0 88 -25 -25 1009.1 912.9
22 22.01 СВ 10 н/о н/о -13.5 -15.0 88 -25 -25 1009.0 912.9
00 23.01 СВ 10-10
{13}
н/о н/о -13.3 -14.8 88 -25 -25 1009.3 913.2
01 23.01 СВ 10 н/о н/о -13.4 -14.8 89 -25 -25 1009.5 913.3
02 23.01 СВ 12 н/о н/о -13.3 -14.8 88 -26 -26 1009.5 913.4
03 23.01 СВ 12-13
{14}
н/о н/о -13.0 -14.5 88 -25 -25 1009.7 913.7
05 23.01 СВ 13 н/о н/о -13.0 -14.4 89 -26 -26 1009.9 913.9
04 23.01 СВ 12 н/о н/о -13.0 -14.4 89 -25 -25 1009.9 913.9
06 23.01 СВ 12-14
{14}
н/о н/о -14.4 -16.0 88 -27 -27 1011.1 914.4 -14.4 -12.7
07 23.01 СВ 12 н/о н/о -13.7 -15.2 88 -26 -26 1011.5 915.0
08 23.01 СВ 12 н/о н/о -13.0 -14.5 88 -25 -25 1011.8 915.6
09 23.01 СВ 11-12
{13}
н/о н/о -14.0 -15.5 88 -26 -26 1012.8 916.1
11 23.01 СВ 8 н/о н/о -15.3 -16.9 88 -26 -26 1014.8 917.5
10 23.01 СВ 10 н/о н/о -14.7 -16.2 88 -27 -27 1013.7 916.7
12 23.01 В 6-7
{8}
н/о н/о -14.8 -16.5 87 -24 -24 1015.5 918.2
13 23.01 В 5 н/о н/о -14.4 -16.1 87 -23 -23 1016.0 918.8
14 23.01 В 5 н/о н/о -14.0 -15.6 88 -23 -23 1016.4 919.4
15 23.01 СВ 4-5
{6}
н/о н/о -13.7 -15.2 88 -21 -21 1017.2 920.2
17 23.01 СВ 7 н/о н/о -13.4 -14.9 88 -23 -23 1017.8 920.9
16 23.01 СВ 4 н/о н/о -13.4 -15.0 88 -21 -21 1017.5 920.5
18 23.01 СВ 8-9
{9}
н/о н/о -13.3 -14.8 88 -24 -24 1018.3 921.3 -15.3 -13.0
19 23.01 СВ 7 н/о н/о -13.0 -14.5 88 -23 -23 1018.6 921.7
20 23.01 СВ 9 н/о н/о -12.6 -14.0 89 -23 -23 1019.0 922.3
21 23.01 СВ 9-10
{11}
н/о н/о -12.3 -13.7 89 -23 -23 1019.5 922.7
23 23.01 В 9 н/о н/о -11.9 -13.3 89 -22 -22 1019.9 923.3
22 23.01 В 9 н/о н/о -12.0 -13.4 89 -23 -23 1019.6 923.0
00 24.01 В 7-8
{9}
н/о н/о -11.9 -13.3 89 -21 -21 1020.5 923.8
01 24.01 СВ 7 н/о н/о -11.9 -13.2 90 -21 -21 1020.7 924.0
02 24.01 СВ 7 н/о н/о -11.8 -13.1 90 -21 -21 1020.7 924.1
03 24.01 СВ 7-8
{8}
н/о н/о -11.5 -12.9 89 -21 -21 1020.9 924.3
05 24.01 С 9 н/о н/о -11.6 -12.9 90 -22 -22 1020.9 924.2
04 24.01 С 7 н/о н/о -11.6 -12.9 90 -21 -21 1020.8 924.2
06 24.01 С 8-8
{10}
н/о н/о -11.3 -12.5 91 -21 -21 1020.8 924.3 -13.3 -11.3
07 24.01 С 8 н/о н/о -11.3 -12.6 90 -21 -21 1020.8 924.3
08 24.01 С 7 н/о н/о -11.3 -12.6 90 -21 -21 1021.2 924.6
09 24.01 С 6-7
{8}
н/о н/о -11.4 -12.7 90 -20 -20 1021.4 924.8

 

Местоположение метеостанции Муонио Лаукукеро (Финляндия): широта 68.06 долгота 24.03 высота над уровнем моря 760 м.

В архиве по умолчанию представлена погода в Муонио Лаукукеро за последнюю неделю. Архивные данные за месяц целиком и за предыдущие месяцы, начиная с января 2011 года, Вы можете получить, выбрав интересующий диапазон дат из раскрывающегося списка и нажав кнопку "Ввод!".


*Определитесь, кто Вы:
робот инопланетянин человек

Внимание! Время в таблицах - всемирное. Для получения местного времени необходимо прибавить поправку, которая равна 1 ч.

Смотрите также архив погоды в соседних городах и на ближайших метеорологических станциях:

Погода в Киттиля Ломполонвуома (Финляндия) (10 км)
Погода в Муонио Саммалтунтури (Финляндия) (11 км)
Погода в Киттила Маторова (Финляндия) (11 км)
Погода в Киттила Кенттарова (Финляндия) (12 км)
Погода в Муонио Аламуонио (Финляндия) (17 км)
Погода в Киттила Левитунтури (Финляндия) (46 км)
Погода в Киттиля (Финляндия) (53 км)
Погода в Киттиля (Финляндия) (58 км)
Погода в Паркаломполо (Швеция) (62 км)
Погода в Наккала (Финляндия) (63 км)

Пояснения к столбцам:

Ветер - указаны скорость ветра в м/с - средняя за 10 мин, порывы в срок и между сроками (в фигурных скобках) и направление, откуда дует ветер: С - северный, СВ - северо-восточный, В - восточный, ЮВ - юго-восточный, Ю - южный, ЮЗ - юго-западный, З - западный, СЗ - северо-западный.
Видимость - горизонтальная дальность видимости в метрах или километрах. При видимости от 1 до 10 км при отсутствии осадков обычно наблюдается дымка, при ухудшении видимости до 1 км и менее - туман. В сухую погоду видимость может ухудшаться дымом, пылью или мглою.
Явления - указаны атмосферные явления, наблюдавшиеся в срок или в последний час перед сроком; фигурными скобками обозначены явления, наблюдавшиеся между сроками (за 1-3 часа до срока); квадратными скобками обозначены град или гололедные отложения с указанием их диаметра в мм.
Облачность - указаны через наклонную черту общая и нижняя облачность в баллах и высота нижней границы облаков в метрах; квадратными скобками обозначены формы облаков: Ci - перистые, Cs - перисто-слоистые, Cc - перисто-кучевые, Ac - высококучевые, As - высокослоистые, Sc - слоисто-кучевые, Ns - слоисто-дождевые, Cu - кучевые, Cb - кучево-дождевые. Подробнее классификацию облаков см. в Атласе облаков (PDF).
T - Температура воздуха - температура, измеренная на высоте 2 м над землей.
Td - Температура точки росы - температура, при понижении до которой содержащийся в воздухе водяной пар достигнет насыщения.
f - Относительная влажность воздуха - влажноcть воздуха, измеренная на высоте 2 м над землей.
Te - Эффективная температура - температура, которую ощущает одетый по сезону человек в тени. Характеристика душности погоды. При расчете учитывается влияние влажности воздуха и скорости ветра на теплоощущения человека.
Tes - Эффективная температура на солнце - температура, которую ощущает человек, с поправкой на солнечный нагрев. Характеристика знойности погоды. Зависит от высоты солнца над горизонтом, облачности и скорости ветра. Ночью, в пасмурную погоду, а также при ветре 12 м/с и более поправка равна нулю.
P - Атмосферное давление - приведенное к уровню моря атмосферное давление.
Po - Атмосферное давление - измеренное на уровне метеостанции атмосферное давление.
Tmin - Минимальная температура - минимум температуры воздуха на высоте 2 м над землей.
Tmax - Максимальная температура - максимум температуры воздуха на высоте 2 м над землей.
R - Количество осадков - Количество выпавших осадков за период времени, мм. При наведении курсора мыши на число - период времени, за который выпало указанное количество осадков.
R24 - Количество осадков - Количество выпавших осадков за 24 часа, мм.
S - Снежный покров - Высота снежного покрова, см. При наведении курсора мыши на число - состояние снежного покрова и степень покрытия местности в баллах.